Time,TemperatureF,DewpointF,PressureIn,WindDirection,WindDirectionDegrees,WindSpeedMPH,WindSpeedGustMPH,Humidity,HourlyPrecipIn,Conditions,Clouds,dailyrainin,SoftwareType,DateUTC
2013-02-12 00:40:00,43.0,-99.9,-100.00,SSE,165,7.0,9.0,-999,-99.99,,,-99.99,,2013-02-12 07:40:00,
2013-02-12 01:22:00,43.0,-99.9,-100.00,SSE,165,7.0,9.0,-999,-99.99,,,-99.99,,2013-02-12 08:22:00,
2013-02-12 01:30:00,42.0,-99.9,-100.00,ENE,60,4.0,10.0,-999,-99.99,,,-99.99,,2013-02-12 08:30:00,
2013-02-12 01:32:00,43.0,-99.9,-100.00,SSE,165,7.0,9.0,-999,-99.99,,,-99.99,,2013-02-12 08:32:00,
2013-02-12 02:22:00,42.0,-99.9,-100.00,ENE,60,4.0,10.0,-999,-99.99,,,-99.99,,2013-02-12 09:22:00,
2013-02-12 03:02:00,40.0,-99.9,-100.00,ESE,107,3.0,8.0,-999,-99.99,,,-99.99,,2013-02-12 10:02:00,
2013-02-12 03:10:00,40.0,-99.9,-100.00,East,86,2.0,6.0,-999,-99.99,,,-99.99,,2013-02-12 10:10:00,
2013-02-12 03:11:00,40.0,-99.9,-100.00,ESE,107,3.0,8.0,-999,-99.99,,,-99.99,,2013-02-12 10:11:00,
2013-02-12 03:22:00,40.0,-99.9,-100.00,ESE,107,3.0,8.0,-999,-99.99,,,-99.99,,2013-02-12 10:22:00,
2013-02-12 03:32:00,40.0,-99.9,-100.00,SE,137,3.0,11.0,-999,-99.99,,,-99.99,,2013-02-12 10:32:00,
2013-02-12 03:43:00,40.0,-99.9,-100.00,SE,137,3.0,11.0,-999,-99.99,,,-99.99,,2013-02-12 10:43:00,
2013-02-12 03:52:00,40.0,-99.9,-100.00,East,86,2.0,6.0,-999,-99.99,,,-99.99,,2013-02-12 10:52:00,
2013-02-12 04:02:00,40.0,-99.9,-100.00,East,86,2.0,6.0,-999,-99.99,,,-99.99,,2013-02-12 11:02:00,
2013-02-12 04:32:00,40.0,-99.9,-100.00,ENE,71,4.0,6.0,-999,-99.99,,,-99.99,,2013-02-12 11:32:00,
2013-02-12 04:42:00,40.0,-99.9,-100.00,ENE,71,4.0,6.0,-999,-99.99,,,-99.99,,2013-02-12 11:42:00,
2013-02-12 04:53:00,40.0,-99.9,-100.00,ENE,71,4.0,6.0,-999,-99.99,,,-99.99,,2013-02-12 11:53:00,
2013-02-12 05:02:00,41.0,-99.9,-100.00,ESE,109,4.0,8.0,-999,-99.99,,,-99.99,,2013-02-12 12:02:00,
2013-02-12 05:11:00,41.0,-99.9,-100.00,ESE,109,4.0,8.0,-999,-99.99,,,-99.99,,2013-02-12 12:11:00,
2013-02-12 05:22:00,41.0,-99.9,-100.00,East,81,3.0,8.0,-999,-99.99,,,-99.99,,2013-02-12 12:22:00,
2013-02-12 05:32:00,41.0,-99.9,-100.00,East,81,3.0,8.0,-999,-99.99,,,-99.99,,2013-02-12 12:32:00,
2013-02-12 05:53:00,40.0,-99.9,-100.00,NNE,16,4.0,8.0,-999,-99.99,,,-99.99,,2013-02-12 12:53:00,
2013-02-12 06:02:00,40.0,-99.9,-100.00,NNE,16,4.0,8.0,-999,-99.99,,,-99.99,,2013-02-12 13:02:00,
2013-02-12 06:30:00,40.0,-99.9,-100.00,SE,125,2.0,7.0,-999,-99.99,,,-99.99,,2013-02-12 13:30:00,
2013-02-12 06:52:00,41.0,-99.9,-100.00,NNE,12,7.0,10.0,-999,-99.99,,,-99.99,,2013-02-12 13:52:00,
2013-02-12 07:01:00,40.0,-99.9,-100.00,SE,143,3.0,6.0,-999,-99.99,,,-99.99,,2013-02-12 14:01:00,
2013-02-12 07:12:00,40.0,-99.9,-100.00,SE,143,3.0,6.0,-999,-99.99,,,-99.99,,2013-02-12 14:12:00,
2013-02-12 07:22:00,40.0,-99.9,-100.00,SE,125,2.0,7.0,-999,-99.99,,,-99.99,,2013-02-12 14:22:00,
2013-02-12 08:02:00,41.0,-99.9,-100.00,ESE,122,9.0,10.0,-999,-99.99,,,-99.99,,2013-02-12 15:02:00,
2013-02-12 08:11:00,41.0,-99.9,-100.00,ESE,122,9.0,10.0,-999,-99.99,,,-99.99,,2013-02-12 15:11:00,
2013-02-12 08:22:00,41.0,-99.9,-100.00,North,0,7.0,8.0,-999,-99.99,,,-99.99,,2013-02-12 15:22:00,
2013-02-12 08:32:00,41.0,-99.9,-100.00,North,0,7.0,8.0,-999,-99.99,,,-99.99,,2013-02-12 15:32:00,
2013-02-12 08:40:00,45.0,-99.9,-100.00,ENE,75,8.0,10.0,-999,-99.99,,,-99.99,,2013-02-12 15:40:00,
2013-02-12 09:22:00,45.0,-99.9,-100.00,ENE,75,8.0,10.0,-999,-99.99,,,-99.99,,2013-02-12 16:22:00,
2013-02-12 09:32:00,45.0,-99.9,-100.00,ENE,75,8.0,10.0,-999,-99.99,,,-99.99,,2013-02-12 16:32:00,
2013-02-12 09:40:00,49.0,-99.9,-100.00,ESE,104,8.0,17.0,-999,-99.99,,,-99.99,,2013-02-12 16:40:00,
2013-02-12 09:52:00,47.0,-99.9,-100.00,East,81,0.0,13.0,-999,-99.99,,,-99.99,,2013-02-12 16:52:00,
2013-02-12 10:01:00,48.0,-99.9,-100.00,ENE,72,15.0,15.0,-999,-99.99,,,-99.99,,2013-02-12 17:01:00,
2013-02-12 10:12:00,48.0,-99.9,-100.00,ENE,72,15.0,15.0,-999,-99.99,,,-99.99,,2013-02-12 17:12:00,
2013-02-12 10:22:00,49.0,-99.9,-100.00,ESE,104,8.0,17.0,-999,-99.99,,,-99.99,,2013-02-12 17:22:00,
2013-02-12 10:30:00,51.0,-99.9,-100.00,East,83,14.0,19.0,-999,-99.99,,,-99.99,,2013-02-12 17:30:00,
2013-02-12 10:32:00,49.0,-99.9,-100.00,ESE,104,8.0,17.0,-999,-99.99,,,-99.99,,2013-02-12 17:32:00,
2013-02-12 10:52:00,51.0,-99.9,-100.00,ENE,70,11.0,14.0,-999,-99.99,,,-99.99,,2013-02-12 17:52:00,
2013-02-12 11:02:00,51.0,-99.9,-100.00,ENE,70,11.0,14.0,-999,-99.99,,,-99.99,,2013-02-12 18:02:00,
2013-02-12 11:12:00,51.0,-99.9,-100.00,ENE,70,11.0,14.0,-999,-99.99,,,-99.99,,2013-02-12 18:12:00,
2013-02-12 11:23:00,51.0,-99.9,-100.00,East,83,14.0,19.0,-999,-99.99,,,-99.99,,2013-02-12 18:23:00,
2013-02-12 11:52:00,54.0,-99.9,-100.00,ENE,67,16.0,16.0,-999,-99.99,,,-99.99,,2013-02-12 18:52:00,
2013-02-12 12:02:00,54.0,-99.9,-100.00,East,101,20.0,20.0,-999,-99.99,,,-99.99,,2013-02-12 19:02:00,
2013-02-12 12:11:00,54.0,-99.9,-100.00,East,101,20.0,20.0,-999,-99.99,,,-99.99,,2013-02-12 19:11:00,
2013-02-12 12:22:00,54.0,-99.9,-100.00,East,101,20.0,20.0,-999,-99.99,,,-99.99,,2013-02-12 19:22:00,
2013-02-12 13:22:00,55.0,-99.9,-100.00,ESE,102,6.0,20.0,-999,-99.99,,,-99.99,,2013-02-12 20:22:00,
2013-02-12 13:32:00,55.0,-99.9,-100.00,ESE,102,6.0,20.0,-999,-99.99,,,-99.99,,2013-02-12 20:32:00,
2013-02-12 13:40:00,57.0,-99.9,-100.00,ENE,72,12.0,20.0,-999,-99.99,,,-99.99,,2013-02-12 20:40:00,
2013-02-12 13:42:00,55.0,-99.9,-100.00,ESE,102,6.0,20.0,-999,-99.99,,,-99.99,,2013-02-12 20:42:00,
2013-02-12 13:52:00,56.0,-99.9,-100.00,NE,42,12.0,20.0,-999,-99.99,,,-99.99,,2013-02-12 20:52:00,
2013-02-12 14:02:00,55.0,-99.9,-100.00,ENE,73,16.0,18.0,-999,-99.99,,,-99.99,,2013-02-12 21:02:00,
2013-02-12 14:11:00,55.0,-99.9,-100.00,ENE,73,16.0,18.0,-999,-99.99,,,-99.99,,2013-02-12 21:11:00,
2013-02-12 14:21:00,57.0,-99.9,-100.00,ENE,72,12.0,20.0,-999,-99.99,,,-99.99,,2013-02-12 21:21:00,
2013-02-12 14:32:00,57.0,-99.9,-100.00,ENE,72,12.0,20.0,-999,-99.99,,,-99.99,,2013-02-12 21:32:00,
2013-02-12 14:52:00,57.0,-99.9,-100.00,ENE,72,15.0,19.0,-999,-99.99,,,-99.99,,2013-02-12 21:52:00,
2013-02-12 15:02:00,57.0,-99.9,-100.00,ENE,72,15.0,19.0,-999,-99.99,,,-99.99,,2013-02-12 22:02:00,
2013-02-12 15:40:00,58.0,-99.9,-100.00,NNE,25,7.0,15.0,-999,-99.99,,,-99.99,,2013-02-12 22:40:00,
2013-02-12 16:02:00,58.0,-99.9,-100.00,ENE,72,11.0,13.0,-999,-99.99,,,-99.99,,2013-02-12 23:02:00,
2013-02-12 16:10:00,58.0,-99.9,-100.00,NE,43,9.0,17.0,-999,-99.99,,,-99.99,,2013-02-12 23:10:00,
2013-02-12 16:12:00,58.0,-99.9,-100.00,ENE,72,11.0,13.0,-999,-99.99,,,-99.99,,2013-02-12 23:12:00,
2013-02-12 16:22:00,58.0,-99.9,-100.00,NNE,25,7.0,15.0,-999,-99.99,,,-99.99,,2013-02-12 23:22:00,
2013-02-12 16:32:00,58.0,-99.9,-100.00,NNE,25,7.0,15.0,-999,-99.99,,,-99.99,,2013-02-12 23:32:00,
2013-02-12 16:40:00,58.0,-99.9,-100.00,NE,48,12.0,12.0,-999,-99.99,,,-99.99,,2013-02-12 23:40:00,
2013-02-12 16:52:00,58.0,-99.9,-100.00,NE,43,9.0,17.0,-999,-99.99,,,-99.99,,2013-02-12 23:52:00,
2013-02-12 17:02:00,58.0,-99.9,-100.00,NE,43,9.0,17.0,-999,-99.99,,,-99.99,,2013-02-13 00:02:00,
2013-02-12 17:10:00,58.0,-99.9,-100.00,ENE,60,11.0,17.0,-999,-99.99,,,-99.99,,2013-02-13 00:10:00,
2013-02-12 17:22:00,58.0,-99.9,-100.00,NE,48,12.0,12.0,-999,-99.99,,,-99.99,,2013-02-13 00:22:00,
2013-02-12 17:32:00,58.0,-99.9,-100.00,NE,48,12.0,12.0,-999,-99.99,,,-99.99,,2013-02-13 00:32:00,
2013-02-12 17:52:00,58.0,-99.9,-100.00,ENE,60,11.0,17.0,-999,-99.99,,,-99.99,,2013-02-13 00:52:00,
2013-02-12 18:01:00,58.0,-99.9,-100.00,ENE,60,11.0,17.0,-999,-99.99,,,-99.99,,2013-02-13 01:01:00,
2013-02-12 18:20:00,55.0,-99.9,-100.00,ENE,62,7.0,8.0,-999,-99.99,,,-99.99,,2013-02-13 01:20:00,
2013-02-12 19:01:00,55.0,-99.9,-100.00,ENE,62,7.0,8.0,-999,-99.99,,,-99.99,,2013-02-13 02:01:00,
2013-02-12 19:10:00,51.0,-99.9,-100.00,East,80,3.0,7.0,-999,-99.99,,,-99.99,,2013-02-13 02:10:00,
2013-02-12 19:11:00,55.0,-99.9,-100.00,ENE,62,7.0,8.0,-999,-99.99,,,-99.99,,2013-02-13 02:11:00,
2013-02-12 19:52:00,51.0,-99.9,-100.00,East,80,3.0,7.0,-999,-99.99,,,-99.99,,2013-02-13 02:52:00,
2013-02-12 20:02:00,51.0,-99.9,-100.00,East,80,3.0,7.0,-999,-99.99,,,-99.99,,2013-02-13 03:02:00,
2013-02-12 20:10:00,48.0,-99.9,-100.00,SE,124,5.0,5.0,-999,-99.99,,,-99.99,,2013-02-13 03:10:00,
2013-02-12 20:32:00,49.0,-99.9,-100.00,East,86,4.0,7.0,-999,-99.99,,,-99.99,,2013-02-13 03:32:00,
2013-02-12 20:40:00,47.0,-99.9,-100.00,SSW,193,5.0,12.0,-999,-99.99,,,-99.99,,2013-02-13 03:40:00,
2013-02-12 20:42:00,49.0,-99.9,-100.00,East,86,4.0,7.0,-999,-99.99,,,-99.99,,2013-02-13 03:42:00,
2013-02-12 20:52:00,48.0,-99.9,-100.00,SE,124,5.0,5.0,-999,-99.99,,,-99.99,,2013-02-13 03:52:00,
2013-02-12 21:01:00,48.0,-99.9,-100.00,SE,124,5.0,5.0,-999,-99.99,,,-99.99,,2013-02-13 04:01:00,
2013-02-12 21:22:00,47.0,-99.9,-100.00,SSW,193,5.0,12.0,-999,-99.99,,,-99.99,,2013-02-13 04:22:00,
2013-02-12 21:32:00,47.0,-99.9,-100.00,SSW,193,5.0,12.0,-999,-99.99,,,-99.99,,2013-02-13 04:32:00,
2013-02-12 22:02:00,47.0,-99.9,-100.00,SSW,199,6.0,8.0,-999,-99.99,,,-99.99,,2013-02-13 05:02:00,
2013-02-12 22:10:00,46.0,-99.9,-100.00,SSE,158,1.0,9.0,-999,-99.99,,,-99.99,,2013-02-13 05:10:00,
2013-02-12 22:12:00,47.0,-99.9,-100.00,SSW,199,6.0,8.0,-999,-99.99,,,-99.99,,2013-02-13 05:12:00,
2013-02-12 22:32:00,46.0,-99.9,-100.00,NNE,15,8.0,11.0,-999,-99.99,,,-99.99,,2013-02-13 05:32:00,
2013-02-12 22:42:00,46.0,-99.9,-100.00,NNE,15,8.0,11.0,-999,-99.99,,,-99.99,,2013-02-13 05:42:00,
2013-02-12 22:50:00,44.0,-99.9,-100.00,SE,145,4.0,7.0,-999,-99.99,,,-99.99,,2013-02-13 05:50:00,
2013-02-12 22:52:00,46.0,-99.9,-100.00,SSE,158,1.0,9.0,-999,-99.99,,,-99.99,,2013-02-13 05:52:00,
2013-02-12 23:02:00,46.0,-99.9,-100.00,SSE,158,1.0,9.0,-999,-99.99,,,-99.99,,2013-02-13 06:02:00,
2013-02-12 23:22:00,44.0,-99.9,-100.00,NE,46,8.0,10.0,-999,-99.99,,,-99.99,,2013-02-13 06:22:00,
2013-02-12 23:32:00,44.0,-99.9,-100.00,SE,145,4.0,7.0,-999,-99.99,,,-99.99,,2013-02-13 06:32:00,
2013-02-12 23:42:00,44.0,-99.9,-100.00,SE,145,4.0,7.0,-999,-99.99,,,-99.99,,2013-02-13 06:42:00,